DW7639 Weather Reports


time (UTC)temp
C
wind
direction
speed
KPH
gust
KPH
rain 1hr
cm
rain 24hr
cm
rain mn
cm
humidity
%
barometer
mb
20260906110017 17 63 0.0 1.6 0.00 0.00 0.00 98 1015.5
20260906105020 17 177 1.6 3.2 0.00 0.00 0.00 98 1015.3
20260906104018 17 218 0.0 0.0 0.00 0.00 0.00 98 1015.3
20260906103018 17 181 1.6 3.2 0.00 0.00 0.00 98 1015.3
20260906102019 17 47 0.0 4.8 0.00 0.00 0.00 98 1015.5
20260906101018 17 266 0.0 1.6 0.00 0.00 0.00 98 1015.4
20260906100018 17 125 0.0 1.6 0.00 0.00 0.00 98 1015.3
20260906095019 17 226 0.0 3.2 0.00 0.00 0.00 98 1015.3
20260906094019 17 155 1.6 6.4 0.00 0.00 0.00 98 1015.3
20260906093019 16 131 0.0 1.6 0.00 0.00 0.00 98 1015.3
20260906092019 16 195 0.0 1.6 0.00 0.00 0.00 98 1015.2
20260906091019 16 182 0.0 1.6 0.00 0.00 0.00 98 1015.2
20260906090020 16 231 0.0 0.0 0.00 0.00 0.00 98 1015.0
20260906085036 16 198 0.0 1.6 0.00 0.00 0.00 97 1015.1
20260906084042 16 195 0.0 1.6 0.00 0.00 0.00 97 1015.1
20260906083040 16 52 0.0 4.8 0.00 0.00 0.00 97 1014.9
20260906082020 16 33 0.0 3.2 0.00 0.00 0.00 97 1014.9
20260906081052 16 282 0.0 1.6 0.00 0.00 0.00 97 1014.7
20260906080020 17 163 1.6 1.6 0.00 0.00 0.00 97 1014.7
20260906075021 17 227 0.0 1.6 0.00 0.00 0.00 97 1014.7
20260906074022 17 191 0.0 1.6 0.00 0.00 0.00 97 1014.8
20260906073022 17 256 0.0 1.6 0.00 0.00 0.00 97 1014.9
20260906072022 17 0.0 0.0 0.00 0.00 0.00 97 1015.0
20260906071022 17 208 1.6 1.6 0.00 0.00 0.00 97 1015.0
20260906070022 17 162 0.0 1.6 0.00 0.00 0.00 97 1015.1
20260906065023 17 0.0 0.0 0.00 0.00 0.00 97 1015.2
20260906064023 17 0.0 0.0 0.00 0.00 0.00 97 1015.4
20260906063022 17 212 0.0 3.2 0.00 0.00 0.00 97 1015.5
20260906062042 17 195 0.0 1.6 0.00 0.00 0.00 97 1015.5
20260906061023 17 212 1.6 3.2 0.00 0.00 0.00 96 1015.3
20260906060035 17 189 1.6 6.4 0.00 0.00 0.00 96 1015.2
20260906055016 17 204 0.0 1.6 0.00 0.00 0.00 96 1015.2
20260906054015 17 214 0.0 4.8 0.00 0.00 0.00 96 1015.2
20260906053015 17 187 1.6 4.8 0.00 0.00 0.00 96 1015.2
20260906052016 17 150 0.0 3.2 0.00 0.00 0.00 96 1015.1
20260906051016 17 201 1.6 4.8 0.00 0.00 0.00 96 1015.2
20260906050017 17 197 1.6 3.2 0.00 0.00 0.00 95 1015.1
20260906045017 17 200 0.0 3.2 0.00 0.00 0.00 95 1014.9
20260906044017 18 359 1.6 3.2 0.00 0.00 0.00 95 1015.0
20260906043016 18 156 1.6 3.2 0.00 0.00 0.00 95 1015.3
20260906042018 18 130 1.6 3.2 0.00 0.00 0.00 95 1015.5
20260906041037 18 3 0.0 3.2 0.00 0.00 0.00 94 1015.4
20260906040017 18 189 0.0 3.2 0.00 0.00 0.00 94 1015.5
20260906035118 18 222 0.0 3.2 0.00 0.00 0.00 94 1015.5
20260906034018 18 171 0.0 1.6 0.00 0.00 0.00 94 1015.5
20260906033018 18 189 0.0 3.2 0.00 0.00 0.00 93 1015.5
20260906032018 18 26 0.0 3.2 0.00 0.00 0.00 92 1015.5
20260906031016 18 14 0.0 4.8 0.00 0.00 0.00 92 1015.6
20260906030019 19 344 0.0 3.2 0.00 0.00 0.00 92 1015.6
20260906025015 19 328 1.6 3.2 0.00 0.00 0.00 91 1015.6
20260906024016 19 293 0.0 3.2 0.00 0.00 0.00 90 1015.6
20260906023016 20 337 0.0 3.2 0.00 0.00 0.00 90 1015.7
20260906022016 20 310 0.0 3.2 0.00 0.00 0.00 89 1015.7
20260906021016 20 245 0.0 3.2 0.00 0.00 0.00 89 1015.7
20260906020016 20 228 0.0 3.2 0.00 0.00 0.00 88 1015.6
20260906015017 20 267 0.0 3.2 0.00 0.00 0.00 87 1015.6
20260906014017 21 275 0.0 3.2 0.00 0.00 0.00 86 1015.4
20260906013018 21 325 0.0 1.6 0.00 0.00 0.00 84 1015.3
20260906012018 21 255 0.0 1.6 0.00 0.00 0.00 83 1015.1
20260906011018 22 164 0.0 3.2 0.00 0.00 0.00 82 1015.0
20260906010058 22 173 0.0 1.6 0.00 0.00 0.00 80 1014.9
20260906005018 23 225 0.0 3.2 0.00 0.00 0.00 78 1014.8
20260906004018 23 239 0.0 1.6 0.00 0.00 0.00 76 1014.8
20260906003038 23 279 0.0 3.2 0.00 0.00 0.00 75 1014.6
20260906002018 24 332 0.0 3.2 0.00 0.00 0.00 73 1014.6
20260906001015 25 290 0.0 3.2 0.00 0.00 0.00 72 1014.5
20260906000016 25 298 1.6 3.2 0.00 0.00 0.00 71 1014.5
20260905235016 25 272 1.6 3.2 0.00 0.00 0.00 70 1014.4
20260905234016 25 338 1.6 3.2 0.00 0.00 0.00 68 1014.4
20260905233036 26 358 0.0 1.6 0.00 0.00 0.00 66 1014.3
20260905232017 26 313 1.6 11.3 0.00 0.00 0.00 64 1014.3
20260905231037 26 355 3.2 6.4 0.00 0.00 0.00 63 1014.4
20260905230017 26 325 1.6 4.8 0.00 0.00 0.00 63 1014.5
20260905225017 26 359 1.6 4.8 0.00 0.00 0.00 62 1014.5
20260905224017 27 327 1.6 8.0 0.00 0.00 0.00 63 1014.5
20260905223017 27 321 1.6 6.4 0.00 0.00 0.00 60 1014.4
20260905222018 27 341 1.6 3.2 0.00 0.00 0.00 61 1014.3
20260905221037 28 318 3.2 6.4 0.00 0.00 0.00 58 1014.1
20260905220017 28 289 3.2 9.7 0.00 0.00 0.00 57 1014.1
20260905215018 28 289 1.6 4.8 0.00 0.00 0.00 55 1013.9
20260905214023 28 331 3.2 9.7 0.00 0.00 0.00 55 1013.8
20260905213020 28 269 3.2 6.4 0.00 0.00 0.00 56 1013.8
20260905212017 28 300 1.6 4.8 0.00 0.00 0.00 59 1013.6
20260905211018 28 301 1.6 4.8 0.00 0.00 0.00 62 1013.7
20260905210016 27 194 1.6 8.0 0.00 0.00 0.00 62 1013.7
20260905205016 27 220 0.0 3.2 0.00 0.00 0.00 65 1013.7
20260905204016 28 240 1.6 4.8 0.00 0.00 0.00 64 1013.7
20260905203016 28 240 1.6 4.8 0.00 0.00 0.00 61 1013.8
20260905202016 28 288 1.6 4.8 0.00 0.00 0.00 60 1013.6
20260905201016 28 178 1.6 14.5 0.00 0.00 0.00 58 1013.7
20260905200017 28 8 1.6 4.8 0.00 0.00 0.00 57 1013.7
20260905195017 28 345 1.6 8.0 0.00 0.00 0.00 56 1013.6
20260905194017 28 305 3.2 9.7 0.00 0.00 0.00 60 1013.7
20260905193018 28 329 3.2 9.7 0.00 0.00 0.00 61 1013.8
20260905192038 28 299 1.6 4.8 0.00 0.00 0.00 64 1014.0
20260905191018 28 345 1.6 3.2 0.00 0.00 0.00 66 1014.2
20260905190018 28 339 1.6 4.8 0.00 0.00 0.00 65 1014.2
20260905185018 28 318 1.6 4.8 0.00 0.00 0.00 64 1014.4
20260905184018 27 251 1.6 8.0 0.00 0.00 0.00 70 1014.6
20260905183015 27 317 1.6 6.4 0.00 0.00 0.00 72 1015.0
20260905182016 26 232 1.6 6.4 0.00 0.00 0.00 72 1015.3
20260905181019 26 337 1.6 3.2 0.00 0.00 0.00 73 1015.4
20260905180016 26 316 1.6 8.0 0.00 0.00 0.00 73 1015.5
20260905175027 26 349 0.0 3.2 0.00 0.00 0.00 74 1015.5
20260905174044 25 246 1.6 3.2 0.00 0.00 0.00 75 1015.5
20260905173043 25 303 1.6 4.8 0.00 0.00 0.00 77 1015.7
20260905172023 25 259 1.6 4.8 0.00 0.00 0.00 78 1015.6
20260905171043 25 149 1.6 3.2 0.00 0.00 0.00 78 1015.5
20260905170023 25 1 1.6 4.8 0.00 0.00 0.00 78 1015.7
20260905165023 25 332 3.2 4.8 0.00 0.00 0.00 77 1016.0
20260905164023 25 143 1.6 4.8 0.00 0.00 0.00 76 1016.1
20260905163024 25 335 1.6 6.4 0.00 0.00 0.00 76 1016.1
20260905162041 26 321 1.6 11.3 0.00 0.00 0.00 75 1016.2
20260905161024 26 345 1.6 3.2 0.00 0.00 0.00 74 1016.3
20260905160024 25 299 1.6 6.4 0.00 0.00 0.00 79 1016.6
20260905155024 23 329 1.6 3.2 0.00 0.00 0.00 85 1016.8
20260905154024 22 51 1.6 9.7 0.00 0.00 0.00 86 1016.9
20260905153045 23 65 0.0 1.6 0.00 0.00 0.00 89 1017.2
20260905152025 23 50 0.0 1.6 0.00 0.00 0.00 89 1017.3
20260905151025 23 173 1.6 3.2 0.00 0.00 0.00 88 1017.2
20260905150025 23 134 0.0 3.2 0.00 0.00 0.00 90 1017.3
20260905145025 23 110 0.0 1.6 0.00 0.00 0.00 89 1017.3
20260905144025 23 305 1.6 3.2 0.00 0.00 0.00 87 1017.1
20260905143045 23 359 0.0 1.6 0.00 0.00 0.00 87 1016.5
20260905142026 23 358 0.0 3.2 0.00 0.00 0.00 87 1016.4
20260905141026 23 160 0.0 1.6 0.00 0.00 0.00 88 1016.6
20260905140100 23 4 1.6 3.2 0.00 0.00 0.00 88 1016.7
20260905135026 22 271 0.0 1.6 0.00 0.00 0.00 91 1016.5
20260905134026 21 342 1.6 3.2 0.00 0.00 0.00 93 1016.5
20260905133027 21 312 1.6 3.2 0.00 0.00 0.00 94 1016.6
20260905132027 20 334 1.6 3.2 0.00 0.00 0.00 95 1016.6
20260905131027 20 190 1.6 4.8 0.00 0.00 0.00 95 1016.5
20260905130027 20 28 0.0 3.2 0.00 0.00 0.00 96 1016.6
20260905125107 20 18 1.6 3.2 0.00 0.00 0.00 97 1016.6
20260905124028 20 346 0.0 3.2 0.00 0.00 0.00 97 1016.7
20260905123048 20 35 0.0 1.6 0.00 0.00 0.00 98 1016.6
20260905122028 20 54 0.0 3.2 0.00 0.00 0.00 98 1016.6
20260905121028 19 49 1.6 4.8 0.00 0.00 0.00 98 1016.6
20260905120048 19 31 1.6 3.2 0.00 0.00 0.00 98 1016.5
20260905115028 18 74 0.0 1.6 0.00 0.00 0.00 98 1016.4
20260905114028 18 68 0.0 1.6 0.00 0.00 0.00 98 1016.4
20260905113048 18 95 0.0 1.6 0.00 0.00 0.00 98 1016.5
20260905112049 18 177 1.6 1.6 0.00 0.00 0.00 98 1016.4
20260905111031 18 52 0.0 3.2 0.00 0.00 0.00 98 1016.4